Terminal Aerodrome Forecast
Issued by NWS Sioux Falls, SD

Home | Current Version | Previous Version | Text Only | Print | Product List | Glossary On
Versions: 1 2 3 4 5 6 7 8 9 10 11 12 13 14 15 16 17 18 19 20 21 22 23 24 25 26 27 28 29 30 31 32 33 34 35 36 37 38 39
000
FTUS43 KFSD 221130
TAFSUX
TAF
KSUX 221130Z 2212/2312 18008KT 3SM BR OVC005
     FM221600 17007KT P6SM SCT006
     FM221700 18009KT P6SM SCT250
     FM230300 15007KT P6SM SCT100
     FM230900 14008KT 5SM BR BKN010=

USA.gov is the U.S. government's official web portal to all federal, state and local government web resources and services.